Soldotna, AK

8:24 PM AKST on November 19, 2019 (GMT -0900)
Soldotna

Weather History for PASX - October, 2019

Change the Weather History Date:

Wednesday, October 23, 2019

  Actual Average Record
Temperature  
Mean Temperature 46 °F -  
Max Temperature 50 °F 38 °F 53 °F (1957)
Min Temperature 41 °F 22 °F -5 °F (1966)
Degree Days  
Heating Degree Days 20    
Moisture  
Dew Point 37 °F    
Average Humidity 78    
Maximum Humidity 96    
Minimum Humidity 57    
Precipitation  
Precipitation 0.09 in - - ()
Sea Level Pressure  
Sea Level Pressure 29.20 in    
Wind  
Wind Speed 10 mph (ENE)    
Max Wind Speed 21 mph    
Max Gust Speed 26 mph    
Visibility 10 miles    
Events Rain    
Averages and records for this station are not official NWS values.
T = Trace of Precipitation, MM = Missing Value Source: NWS Daily Summary

Daily Weather History Graph

Daily Weather History Graph

Search for Another Location

Airport or City:

Astronomy

Oct. 23, 2019 Rise Set
Actual Time 9:05 AM AKDT 6:30 PM AKDT
Civil Twilight 8:20 AM AKDT 7:14 PM AKDT
Nautical Twilight 7:31 AM AKDT 8:03 PM AKDT
Astronomical Twilight 6:42 AM AKDT 8:52 PM AKDT
Moon 1:40 AM AKDT (10/23) 6:06 PM AKDT (10/23)
Length of Visible Light 10h 53m
Length of Day
9h 25m
Waning Crescent, 25% of the Moon is Illuminated
Oct 23
Waning Crescent
Oct 27
New
Nov 4
First Quarter
Nov 12
Full
Nov 19
Last Quarter

Hourly Weather History & Observations

Time (AKDT) Temp. Windchill Dew Point Humidity Pressure Visibility Wind Dir Wind Speed Gust Speed Precip Events Conditions
12:56 AM 45.0 °F 39.3 °F 36.0 °F 71% 29.58 in 10.0 mi ENE 11.5 mph 26.5 mph N/A   Partly Cloudy
2:56 AM 42.1 °F 36.6 °F 37.9 °F 85% 29.45 in 10.0 mi ENE 9.2 mph - 0.00 in Rain Light Rain
3:56 AM 41.0 °F 34.7 °F 37.9 °F 89% 29.36 in 10.0 mi NE 10.4 mph 17.3 mph 0.01 in Rain Light Rain
4:56 AM 41.0 °F 33.9 °F 37.9 °F 89% 29.28 in 10.0 mi NE 12.7 mph - 0.03 in Rain Light Rain
5:27 AM 41.0 °F 35.2 °F 37.4 °F 87% 29.22 in 10.0 mi NNE 9.2 mph 16.1 mph 0.01 in Rain Light Rain
5:40 AM 41.0 °F 35.8 °F 37.4 °F 87% 29.22 in 10.0 mi NE 8.1 mph - 0.01 in Rain Light Rain
5:56 AM 41.0 °F 33.9 °F 37.9 °F 89% 29.23 in 10.0 mi NE 12.7 mph 20.7 mph 0.02 in Rain Light Rain
6:56 AM 42.1 °F 34.2 °F 37.9 °F 85% 29.17 in 10.0 mi NE 16.1 mph 26.5 mph 0.02 in Rain Light Rain
7:56 AM 43.0 °F 34.2 °F 37.9 °F 82% 29.13 in 10.0 mi ENE 20.7 mph 25.3 mph 0.00 in   Mostly Cloudy
8:56 AM 43.0 °F 36.4 °F 37.0 °F 80% 29.13 in 10.0 mi ENE 12.7 mph 21.9 mph 0.00 in   Mostly Cloudy
9:56 AM 42.1 °F 40.2 °F 37.9 °F 85% 29.14 in 10.0 mi ESE 3.5 mph - N/A   Overcast
10:56 AM 45.0 °F 39.3 °F 37.9 °F 76% 29.13 in 10.0 mi East 11.5 mph - N/A   Mostly Cloudy
11:56 AM 46.0 °F 40.2 °F 37.0 °F 71% 29.14 in 10.0 mi East 12.7 mph - N/A   Partly Cloudy
12:56 PM 50.0 °F - 35.1 °F 57% 29.13 in 10.0 mi East 12.7 mph - N/A   Partly Cloudy
1:56 PM 50.0 °F - 37.0 °F 61% 29.13 in 10.0 mi East 16.1 mph 20.7 mph N/A   Clear
2:56 PM 48.9 °F - 37.0 °F 64% 29.11 in 10.0 mi East 11.5 mph - N/A   Clear
3:56 PM 48.9 °F - 37.9 °F 66% 29.11 in 10.0 mi East 8.1 mph - 0.00 in   Overcast
4:56 PM 48.9 °F - 36.0 °F 61% 29.11 in 10.0 mi ESE 9.2 mph - N/A   Clear
5:56 PM 46.9 °F - 37.0 °F 68% 29.11 in 10.0 mi East 9.2 mph - N/A   Scattered Clouds
6:56 PM 46.0 °F 42.5 °F 37.0 °F 71% 29.13 in 10.0 mi East 6.9 mph - N/A   Overcast
7:56 PM 44.1 °F 41.5 °F 37.0 °F 76% 29.15 in 10.0 mi East 4.6 mph - N/A   Mostly Cloudy
8:56 PM 43.0 °F 40.3 °F 37.0 °F 80% 29.16 in 10.0 mi East 4.6 mph - 0.00 in Rain Light Rain
9:56 PM 43.0 °F - 37.0 °F 80% 29.18 in 10.0 mi Calm Calm - 0.00 in Rain Light Rain
10:56 PM 41.0 °F - 39.0 °F 93% 29.21 in 10.0 mi Calm Calm - 0.00 in Rain Light Rain
11:56 PM 41.0 °F - 39.9 °F 96% 29.24 in 10.0 mi Calm Calm - 0.01 in Rain Light Rain